Tracking 20628 objects as of 6-Apr-2020
HD Live streaming from Space Station
objects crossing your sky now

OV3-3

Track OV3-3 now!
10-day predictions
OV3-3 is classified as:


NORAD ID: 2389
Int'l Code: 1966-070A
Perigee: 347.2 km
Apogee: 2,236.2 km
Inclination: 81.4 °
Period: 111.3 minutes
Semi major axis: 7662 km
RCS: 0.7052 m2 (medium)
Launch date: August 4, 1966
Source: United States (US)
Launch site: AIR FORCE WESTERN TEST RANGE (AFWTR)
aabbcc
Your satellite tracking list
Your tracking list is empty




NASA's NSSDC Master Catalog

Two Line Element Set (TLE):
1  2389U 66070A   20096.90088982 +.00004412 +00000-0 +24388-3 0  9991
2  2389 081.3864 061.6204 1232636 344.4653 012.1572 12.94281984302040
Source of the keplerian elements: AFSPC